Temp
-12 -11 -11 -12 -12 -11 -11 -10 -11 -11 -10 -9 -9 -9 -9 -9 -9 -10 -10 -10 -10 -10 -10 -10 -10 -10 -10 -10 -10 -10 -9 -9 -8 -9 -9 -9 -8 -8 -9 -9 -9 -9 -9 -10 -10
-11 -11 -11 -12 -12 -11 -11 -11 -11 -10 -10 -9 -9 -9 -9 -10 -10 -10 -10 -10 -10 -10 -10 -10 -10 -10 -10 -10 -10 -10 -9 -9 -9 -9 -9 -10 -9 -9 -10 -10 -10 -9 -10 -10 -10
-11 -11 -11 -11 -10 -10 -10 -10 -10 -10 -10 -10 -10 -9 -9 -9 -9 -10 -10 -10 -10 -10 -10 -10 -10 -10 -10 -10 -11 -10 -10 -9 -9 -10 -10 -10 -9 -9 -10 -10 -10 -10 -10 -10 -10
-11 -11 -11 -10 -10 -10 -9 -9 -9 -9 -9 -9 -9 -9 -9 -9 -10 -9 -10 -10 -10 -10 -10 -10 -11 -11 -10 -10 -11 -11 -10 -10 -10 -10 -10 -10 -9 -10 -10 -10 -10 -11 -11 -10 -11
-10 -10 -10 -10 -10 -9 -9 -9 -10 -10 -9 -9 -9 -9 -9 -9 -10 -10 -10 -10 -9 -9 -10 -11 -11 -11 -11 -11 -11 -11 -11 -11 -11 -10 -10 -10 -10 -10 -11 -12 -11 -11 -11 -10 -11
-10 -10 -10 -10 -10 -9 -9 -9 -9 -9 -9 -8 -8 -8 -9 -9 -11 -10 -10 -9 -9 -9 -10 -10 -12 -11 -11 -11 -11 -11 -11 -11 -11 -11 -10 -10 -10 -12 -12 -12 -12 -11 -11 -11 -11
-9 -9 -9 -9 -9 -9 -9 -9 -9 -9 -9 -9 -9 -8 -8 -10 -10 -10 -10 -10 -10 -10 -11 -11 -12 -11 -12 -12 -11 -11 -11 -12 -12 -11 -11 -10 -11 -12 -12 -13 -12 -11 -11 -11 -11
-9 -9 -9 -9 -9 -9 -9 -9 -9 -9 -9 -9 -9 -9 -8 -10 -9 -10 -10 -10 -10 -10 -11 -12 -12 -11 -11 -12 -13 -12 -12 -11 -11 -11 -11 -10 -12 -12 -12 -13 -11 -12 -12 -12 -11
-9 -9 -9 -9 -9 -9 -9 -9 -9 -9 -9 -9 -9 -9 -9 -10 -10 -10 -10 -10 -10 -11 -12 -12 -11 -12 -12 -12 -12 -11 -12 -12 -12 -12 -11 -11 -11 -13 -13 -12 -12 -12 -12 -12 -11
-9 -9 -9 -9 -9 -9 -9 -9 -9 -9 -9 -9 -9 -9 -10 -10 -10 -10 -10 -10 -10 -11 -11 -11 -11 -11 -11 -11 -11 -12 -11 -11 -11 -12 -11 -11 -12 -13 -12 -12 -13 -13 -13 -12 -12
-9 -9 -9 -9 -9 -9 -10 -9 -9 -9 -9 -9 -9 -9 -9 -9 -9 -11 -11 -11 -11 -11 -10 -11 -11 -10 -11 -12 -12 -12 -11 -11 -11 -13 -12 -12 -12 -12 -12 -12 -13 -13 -13 -13 -12
-9 -9 -9 -9 -9 -9 -10 -9 -9 -9 -9 -9 -9 -9 -9 -9 -9 -10 -11 -10 -10 -10 -11 -11 -10 -11 -12 -11 -11 -12 -11 -11 -11 -12 -12 -12 -12 -12 -13 -13 -13 -14 -14 -13 -12
-10 -10 -10 -10 -9 -10 -10 -10 -10 -10 -9 -9 -9 -9 -10 -9 -9 -9 -9 -10 -11 -11 -11 -11 -11 -12 -12 -11 -11 -11 -11 -11 -11 -12 -12 -12 -11 -12 -13 -13 -12 -13 -13 -13 -13
-10 -10 -10 -10 -10 -10 -10 -10 -10 -10 -9 -9 -9 -9 -9 -9 -8 -9 -9 -10 -10 -10 -11 -11 -11 -11 -11 -11 -11 -11 -12 -12 -12 -12 -12 -12 -11 -12 -12 -13 -13 -12 -13 -13 -13
-10 -10 -10 -11 -10 -11 -11 -10 -10 -10 -9 -9 -8 -9 -9 -8 -9 -9 -10 -10 -9 -10 -11 -10 -11 -11 -11 -12 -12 -12 -13 -13 -12 -12 -11 -11 -11 -11 -12 -13 -12 -12 -13 -13 -13
-10 -11 -11 -11 -11 -12 -12 -11 -11 -11 -8 -8 -8 -9 -9 -9 -9 -10 -9 -10 -10 -10 -10 -10 -11 -11 -11 -12 -12 -12 -12 -12 -12 -12 -11 -12 -12 -11 -13 -12 -12 -13 -13 -13 -13
-12 -12 -12 -11 -12 -12 -12 -12 -12 -10 -8 -8 -9 -9 -9 -9 -9 -10 -10 -10 -9 -9 -9 -9 -10 -11 -11 -12 -12 -12 -12 -12 -12 -12 -11 -13 -12 -12 -12 -11 -12 -13 -13 -13 -12
-12 -12 -12 -12 -12 -13 -13 -13 -12 -9 -9 -9 -9 -10 -10 -10 -9 -10 -10 -10 -10 -9 -9 -9 -9 -11 -11 -11 -12 -12 -13 -13 -12 -13 -12 -13 -12 -12 -12 -12 -12 -13 -12 -13 -12
-12 -12 -12 -12 -13 -14 -14 -14 -10 -9 -9 -10 -10 -11 -10 -10 -10 -11 -10 -10 -10 -10 -10 -9 -9 -11 -11 -11 -12 -13 -13 -13 -13 -14 -12 -12 -12 -13 -13 -13 -12 -13 -13 -12 -12
-12 -12 -12 -13 -14 -15 -15 -13 -11 -10 -10 -11 -11 -11 -12 -11 -11 -11 -11 -9 -10 -10 -10 -10 -10 -12 -11 -11 -12 -13 -14 -14 -14 -14 -13 -12 -12 -13 -13 -13 -13 -13 -12 -12 -12
-14 -13 -13 -15 -15 -15 -15 -12 -12 -12 -11 -12 -12 -12 -12 -12 -12 -11 -11 -11 -11 -11 -11 -11 -11 -11 -12 -10 -11 -12 -13 -14 -13 -14 -13 -12 -12 -14 -14 -13 -13 -13 -12 -12 -12
-19 -15 -14 -16 -17 -15 -14 -12 -13 -12 -13 -13 -13 -13 -13 -13 -12 -12 -11 -12 -12 -12 -11 -11 -11 -11 -12 -11 -12 -12 -13 -14 -14 -14 -14 -13 -12 -14 -14 -14 -14 -13 -13 -12 -12
-24 -21 -18 -17 -19 -16 -15 -14 -14 -14 -14 -13 -13 -14 -13 -13 -13 -12 -12 -12 -12 -12 -12 -12 -11 -11 -11 -11 -11 -10 -12 -13 -13 -14 -14 -13 -12 -14 -14 -14 -14 -14 -13 -12 -12
-26 -24 -24 -23 -21 -18 -17 -16 -15 -15 -15 -15 -14 -14 -14 -14 -13 -13 -13 -13 -13 -13 -13 -13 -12 -11 -10 -11 -11 -12 -12 -13 -13 -13 -13 -12 -12 -14 -14 -14 -14 -13 -13 -12 -12
-28 -28 -26 -26 -25 -21 -19 -18 -17 -16 -15 -16 -15 -15 -15 -14 -14 -14 -13 -13 -14 -14 -14 -13 -12 -11 -11 -11 -12 -12 -13 -13 -13 -12 -13 -12 -12 -14 -14 -13 -13 -13 -13 -12 -12
-27 -27 -27 -26 -25 -25 -22 -20 -18 -17 -18 -17 -16 -16 -15 -15 -15 -14 -14 -14 -15 -15 -14 -14 -12 -12 -12 -12 -12 -11 -10 -12 -13 -13 -13 -13 -12 -12 -14 -13 -14 -13 -13 -12 -12
-28 -27 -27 -25 -25 -25 -24 -22 -20 -19 -18 -18 -18 -17 -16 -15 -15 -15 -15 -15 -15 -15 -14 -14 -13 -13 -12 -12 -12 -10 -11 -11 -12 -12 -12 -12 -12 -12 -13 -13 -13 -13 -13 -13 -13
Height
5834 5835 5840 5842 5844 5846 5849 5851 5853 5854 5856 5858 5858 5859 5861 5862 5863 5867 5872 5866 5867 5866 5866 5865 5863 5863 5863 5862 5859 5858 5862 5860 5858 5857 5855 5852 5850 5847 5844 5840 5836 5834 5831 5827 5824
5830 5831 5834 5836 5838 5839 5841 5843 5845 5847 5849 5850 5851 5852 5854 5855 5856 5863 5867 5858 5861 5862 5861 5861 5859 5858 5858 5857 5855 5856 5858 5856 5853 5852 5852 5849 5846 5844 5841 5838 5835 5830 5827 5823 5820
5824 5826 5829 5830 5831 5832 5832 5834 5835 5838 5839 5842 5843 5844 5846 5847 5849 5859 5856 5851 5855 5855 5854 5855 5853 5854 5853 5851 5851 5851 5854 5851 5852 5850 5848 5845 5843 5841 5838 5835 5833 5828 5824 5820 5817
5821 5823 5823 5824 5825 5826 5826 5827 5827 5830 5832 5834 5834 5836 5837 5839 5844 5847 5846 5847 5847 5848 5848 5849 5849 5849 5849 5847 5844 5845 5849 5847 5848 5846 5844 5843 5840 5838 5834 5831 5829 5824 5819 5817 5814
5816 5816 5818 5819 5820 5821 5820 5820 5820 5822 5823 5825 5827 5828 5831 5834 5842 5833 5837 5840 5842 5842 5843 5843 5844 5843 5843 5843 5840 5843 5844 5843 5844 5842 5840 5839 5835 5833 5829 5826 5824 5821 5816 5814 5810
5810 5810 5811 5811 5811 5812 5814 5814 5814 5816 5817 5819 5819 5821 5824 5832 5830 5824 5832 5835 5836 5836 5837 5837 5839 5836 5836 5838 5837 5838 5839 5840 5840 5838 5836 5833 5830 5827 5826 5823 5820 5817 5812 5811 5808
5802 5802 5802 5803 5804 5805 5806 5806 5807 5809 5810 5812 5814 5815 5819 5827 5823 5823 5827 5828 5830 5831 5832 5831 5830 5830 5832 5833 5834 5835 5836 5835 5835 5834 5831 5828 5829 5824 5823 5821 5818 5813 5810 5809 5806
5794 5794 5795 5795 5795 5797 5798 5798 5798 5801 5802 5804 5807 5809 5814 5817 5817 5820 5821 5823 5825 5826 5826 5824 5822 5824 5826 5827 5829 5830 5831 5831 5832 5830 5827 5825 5827 5822 5822 5820 5816 5812 5809 5807 5803
5788 5788 5788 5788 5789 5790 5789 5790 5790 5792 5795 5797 5799 5802 5808 5811 5812 5812 5815 5817 5817 5817 5817 5817 5816 5818 5821 5822 5823 5824 5825 5826 5827 5826 5822 5821 5824 5819 5819 5817 5814 5810 5806 5804 5801
5780 5780 5780 5780 5780 5781 5782 5782 5783 5786 5789 5791 5793 5796 5800 5802 5803 5805 5807 5807 5808 5809 5811 5811 5812 5814 5819 5821 5821 5822 5820 5821 5821 5823 5819 5819 5820 5817 5816 5813 5811 5808 5805 5802 5799
5769 5770 5770 5771 5772 5774 5775 5775 5778 5780 5782 5786 5787 5790 5791 5793 5794 5797 5799 5800 5802 5805 5807 5807 5807 5813 5816 5817 5816 5816 5815 5815 5816 5817 5814 5815 5814 5815 5813 5811 5807 5804 5803 5800 5797
5759 5760 5761 5762 5764 5765 5767 5767 5770 5773 5776 5778 5778 5782 5784 5785 5788 5789 5792 5793 5795 5801 5802 5801 5807 5809 5808 5808 5810 5810 5809 5810 5812 5813 5809 5809 5810 5811 5809 5809 5805 5802 5800 5797 5794
5746 5748 5750 5752 5753 5756 5758 5758 5760 5763 5766 5771 5771 5775 5777 5777 5780 5784 5786 5787 5790 5794 5796 5798 5805 5800 5801 5803 5803 5805 5805 5807 5808 5807 5805 5804 5804 5807 5806 5804 5803 5799 5797 5794 5792
5727 5730 5733 5737 5740 5743 5746 5746 5748 5752 5754 5761 5763 5767 5769 5769 5771 5778 5779 5782 5783 5786 5790 5791 5795 5795 5795 5796 5799 5800 5802 5801 5801 5801 5802 5799 5799 5803 5803 5801 5798 5796 5794 5791 5789
5707 5710 5714 5719 5723 5727 5733 5733 5734 5742 5741 5749 5751 5756 5761 5760 5771 5771 5774 5773 5776 5780 5783 5787 5789 5789 5788 5793 5794 5796 5795 5793 5795 5795 5796 5797 5796 5797 5799 5797 5794 5792 5790 5789 5787
5684 5688 5694 5701 5705 5709 5714 5717 5719 5728 5722 5729 5738 5747 5752 5755 5760 5764 5764 5767 5771 5772 5774 5778 5781 5781 5783 5786 5787 5789 5789 5789 5790 5791 5793 5793 5793 5793 5793 5792 5791 5789 5787 5786 5784
5659 5665 5672 5680 5686 5690 5693 5697 5701 5705 5716 5720 5725 5737 5744 5748 5750 5755 5755 5758 5761 5765 5769 5772 5775 5776 5777 5779 5781 5783 5784 5784 5784 5787 5790 5788 5788 5787 5790 5789 5788 5786 5785 5784 5782
5631 5637 5647 5658 5662 5668 5670 5674 5682 5696 5704 5711 5711 5723 5734 5739 5740 5744 5747 5747 5754 5758 5762 5765 5767 5771 5773 5774 5778 5778 5778 5778 5780 5783 5785 5784 5784 5784 5787 5787 5786 5784 5782 5781 5781
5599 5609 5619 5632 5636 5641 5644 5648 5668 5680 5693 5699 5698 5706 5720 5726 5731 5733 5737 5741 5746 5753 5756 5758 5762 5766 5765 5768 5771 5771 5772 5777 5774 5776 5779 5781 5782 5783 5784 5784 5782 5781 5780 5779 5778
5561 5573 5591 5604 5605 5611 5615 5641 5656 5668 5673 5682 5684 5695 5705 5715 5719 5723 5727 5733 5737 5743 5748 5752 5755 5760 5762 5762 5762 5763 5769 5769 5770 5771 5773 5775 5777 5779 5780 5779 5781 5780 5777 5777 5776
5523 5538 5562 5573 5573 5580 5595 5627 5638 5647 5655 5661 5676 5682 5692 5700 5707 5712 5719 5725 5730 5735 5740 5742 5747 5754 5754 5754 5756 5757 5758 5763 5766 5766 5768 5770 5775 5776 5776 5778 5778 5777 5776 5775 5774
5487 5504 5528 5540 5542 5556 5586 5612 5617 5627 5637 5641 5656 5667 5677 5687 5695 5701 5707 5714 5721 5727 5729 5734 5738 5740 5748 5750 5749 5751 5753 5757 5759 5763 5764 5767 5771 5772 5774 5775 5775 5771 5772 5773 5773
5466 5479 5493 5508 5510 5540 5574 5583 5593 5608 5622 5623 5638 5650 5663 5672 5681 5689 5696 5703 5709 5715 5717 5723 5726 5732 5737 5740 5742 5743 5746 5750 5754 5757 5758 5762 5768 5769 5770 5771 5773 5772 5771 5771 5772
5454 5463 5471 5480 5492 5524 5549 5560 5572 5591 5599 5609 5622 5637 5648 5658 5667 5676 5682 5690 5698 5705 5707 5712 5718 5722 5728 5737 5738 5739 5742 5746 5749 5750 5753 5757 5762 5765 5765 5767 5768 5770 5769 5768 5771
5447 5454 5466 5472 5480 5505 5516 5537 5555 5570 5581 5590 5602 5617 5633 5645 5652 5660 5669 5678 5687 5694 5697 5703 5710 5717 5723 5728 5729 5732 5737 5740 5741 5746 5746 5755 5758 5761 5760 5762 5764 5766 5767 5769 5770
5440 5449 5460 5470 5477 5488 5496 5515 5536 5552 5563 5571 5585 5602 5615 5627 5637 5647 5657 5665 5673 5682 5686 5694 5704 5709 5713 5720 5722 5724 5727 5730 5733 5738 5740 5746 5752 5757 5757 5758 5763 5763 5764 5768 5769
5440 5446 5453 5461 5470 5477 5486 5502 5518 5530 5545 5556 5568 5584 5595 5610 5622 5634 5641 5651 5659 5669 5676 5685 5693 5699 5704 5712 5713 5714 5719 5724 5726 5730 5737 5739 5749 5752 5751 5753 5758 5760 5761 5763 5766
Wind_Speed
53 42 54 45 47 49 54 51 53 49 44 42 38 37 36 34 34 27 21 33 31 33 37 37 43 37 35 36 36 30 27 24 24 22 23 26 27 22 21 26 26 28 30 28 30
32 30 35 42 44 46 48 51 54 54 51 50 48 46 44 45 43 36 33 45 42 40 39 39 37 36 38 35 32 28 24 23 24 23 24 26 25 22 23 24 26 28 28 26 27
23 25 28 29 32 39 44 45 46 51 52 59 58 53 53 54 51 37 42 47 41 40 42 41 40 39 31 30 26 25 21 24 22 26 24 24 24 21 23 24 25 27 25 24 27
29 31 30 30 29 28 33 37 39 41 43 45 44 44 42 40 37 31 34 33 33 37 34 32 32 32 29 28 26 27 20 19 17 19 21 23 23 20 23 24 24 26 25 23 26
33 34 34 35 34 32 30 31 32 33 33 32 33 34 34 32 17 33 27 26 26 27 29 29 29 31 31 25 27 21 17 19 21 20 25 26 19 18 22 24 26 28 26 23 26
39 38 38 38 37 35 34 33 32 32 32 33 34 33 30 17 25 34 26 22 26 28 29 25 28 35 31 23 24 24 21 16 18 24 24 24 16 19 21 24 27 29 25 22 25
41 41 41 40 39 36 35 35 36 35 34 34 35 33 30 18 28 33 31 28 27 29 28 28 32 32 24 23 22 24 22 22 17 20 23 24 14 17 20 24 28 25 22 22 26
29 29 31 34 36 41 43 41 40 38 37 37 37 34 27 28 32 32 33 30 28 27 26 31 33 31 25 26 24 27 19 20 21 19 24 27 13 22 18 19 17 19 20 23 28
31 32 31 30 29 29 29 32 34 34 36 37 37 35 31 28 31 34 32 30 30 29 29 32 34 36 28 25 24 16 12 15 19 24 29 27 18 20 20 16 15 17 20 23 24
38 37 35 34 32 29 29 30 31 30 30 29 27 26 26 32 34 32 29 30 31 31 33 34 33 29 27 24 24 19 25 26 26 20 30 25 21 23 20 16 15 16 17 19 21
41 40 38 38 38 37 36 35 35 35 32 29 27 22 20 25 29 29 28 32 32 31 30 32 34 23 21 24 22 26 30 31 27 22 30 27 28 24 22 17 13 13 17 22 23
45 44 41 40 41 41 41 44 43 40 33 32 31 26 25 25 25 27 29 32 32 26 27 31 22 21 28 29 30 34 37 37 29 25 32 33 29 25 23 16 10 9 14 18 19
52 51 49 47 45 42 42 45 45 43 40 36 35 30 27 33 27 23 24 28 28 26 28 30 19 24 25 27 32 34 35 32 30 29 30 35 33 26 24 18 12 11 13 16 21
59 57 56 56 55 49 46 47 47 45 46 40 39 34 33 35 31 24 24 24 26 27 27 31 27 28 28 29 31 31 27 31 32 31 29 34 33 26 23 18 20 16 14 17 20
66 64 62 61 61 59 55 54 54 47 51 47 44 41 36 37 23 26 24 26 24 20 25 21 25 30 32 28 30 28 29 33 32 31 30 33 33 27 20 21 23 15 11 18 18
73 71 68 66 65 63 61 59 60 54 58 53 47 40 39 37 32 30 31 29 24 25 24 22 27 34 35 32 31 31 33 35 34 32 30 28 27 26 22 21 15 11 15 17 15
78 76 73 70 69 68 66 64 65 66 59 57 55 44 36 35 35 34 36 34 30 25 22 21 16 26 34 34 33 34 34 33 33 29 27 20 25 26 20 14 10 10 12 16 12
83 81 78 75 73 71 72 71 72 66 61 58 60 50 43 38 38 35 35 37 34 31 26 24 23 18 23 28 30 32 33 33 31 28 28 25 26 27 16 13 14 16 13 13 11
91 87 83 78 78 77 78 78 72 67 60 57 61 56 47 41 39 39 38 36 34 30 28 27 25 19 23 24 27 31 33 28 30 28 29 27 23 17 7 11 13 12 11 13 7
101 97 91 84 84 83 83 77 72 67 66 61 63 57 50 41 41 40 40 38 35 32 30 30 29 22 24 27 30 33 30 31 31 28 24 23 20 8 12 9 13 17 13 9 5
103 103 97 89 90 89 86 78 76 73 70 68 60 57 51 47 43 42 41 38 36 32 31 32 31 26 31 33 32 35 36 33 30 28 22 22 12 6 14 16 17 13 10 9 4
72 93 101 93 94 93 85 78 80 77 75 73 66 61 56 51 47 45 45 42 37 34 36 35 35 36 32 34 36 37 36 31 30 27 25 24 8 8 5 13 18 7 6 8 4
50 59 78 90 92 92 83 82 80 78 75 77 71 65 60 57 53 49 48 46 42 39 40 38 39 37 35 40 38 39 37 35 31 31 28 24 12 8 9 12 16 13 9 5 5
32 37 53 65 76 85 81 82 82 77 78 76 72 67 64 61 57 54 53 51 46 42 42 42 42 40 38 30 31 34 35 32 32 34 29 22 14 9 13 13 16 15 9 8 6
29 39 37 44 57 64 81 82 81 80 79 77 76 71 67 64 62 60 57 54 48 43 45 46 42 39 36 33 31 30 30 29 31 30 34 20 21 16 19 20 16 17 14 10 8
28 36 41 32 41 42 60 75 78 80 80 80 78 73 70 67 66 64 60 56 51 49 49 48 45 43 41 38 37 37 36 34 34 32 31 24 24 15 15 21 17 14 16 13 11
17 42 33 26 16 35 41 64 73 78 80 80 78 75 73 69 67 66 65 62 57 55 53 52 50 46 45 41 40 42 41 37 36 35 29 29 21 21 22 26 24 22 14 17 18
Wind_Direction
237 257 238 242 247 241 241 240 243 243 245 247 250 251 253 258 260 256 268 273 277 288 295 293 291 293 294 294 286 281 279 283 290 298 296 288 288 301 309 312 318 321 321 324 326
240 244 247 249 252 254 248 249 246 242 245 248 251 252 257 265 266 267 274 270 278 287 289 288 285 286 290 285 280 278 274 281 285 294 291 284 295 308 312 313 320 319 324 323 327
238 240 242 246 253 256 254 251 251 249 255 253 253 254 259 263 264 272 272 269 277 277 277 278 276 282 286 277 278 270 267 282 296 298 286 286 298 309 310 317 318 320 317 322 325
243 245 246 250 254 253 253 252 251 252 256 256 255 257 259 267 269 270 266 271 269 269 271 274 273 274 274 268 270 266 276 271 286 289 286 293 302 311 312 317 317 316 314 321 328
251 250 250 249 252 253 251 249 249 250 254 254 253 255 258 258 254 254 251 258 264 265 263 261 267 264 264 261 263 279 262 271 283 286 279 286 299 311 311 315 314 315 310 321 328
255 256 257 257 255 254 254 255 254 253 254 257 259 259 259 245 221 246 246 249 262 255 257 262 260 260 260 253 263 256 252 274 283 276 273 284 300 310 306 312 315 311 310 315 323
257 258 258 258 259 255 254 255 257 257 257 258 257 255 252 230 231 246 253 250 254 256 261 258 253 261 253 254 255 264 261 252 268 278 282 284 302 291 302 307 312 300 302 310 318
252 254 255 256 256 254 252 252 252 253 253 254 254 256 255 242 249 245 252 256 257 264 257 254 255 257 250 255 254 259 251 264 272 276 276 277 283 285 290 305 304 302 304 308 320
258 258 258 259 256 253 252 252 254 255 255 256 258 260 255 248 247 247 250 253 249 249 246 249 252 256 241 249 250 256 251 251 256 266 271 273 287 286 288 299 312 305 304 311 317
258 258 259 258 257 256 255 254 254 255 256 257 258 257 253 247 246 246 245 244 247 245 244 249 255 252 251 258 262 249 251 252 255 262 270 279 284 283 290 294 311 300 307 315 324
257 257 257 257 255 254 255 254 256 255 254 254 251 253 250 245 241 240 243 246 251 252 258 257 258 270 262 251 241 251 259 259 262 269 273 272 283 285 300 304 311 302 313 315 320
254 252 252 252 251 251 253 255 254 254 252 250 248 241 249 245 244 241 242 251 258 263 258 257 270 270 260 257 254 256 254 257 262 266 270 270 279 286 296 313 313 301 307 317 319
253 251 248 249 251 251 250 252 252 250 249 245 248 244 246 248 246 248 250 252 253 251 253 255 260 252 253 252 251 253 254 260 264 263 269 276 278 282 287 320 311 276 286 309 312
255 251 249 248 250 248 247 252 255 254 252 242 244 242 242 250 247 247 255 257 253 251 246 246 246 254 254 254 254 255 262 260 260 266 270 268 276 272 285 315 312 297 286 298 304
254 254 252 249 250 248 247 247 250 248 250 248 241 242 239 248 249 240 246 245 248 255 252 259 246 253 258 259 253 251 250 255 259 263 268 272 275 286 296 306 299 287 297 299 302
251 250 248 247 248 247 245 243 246 244 247 251 243 238 238 245 249 238 238 238 242 245 249 249 238 237 247 248 245 248 249 257 262 263 267 273 286 283 292 300 294 296 291 291 300
250 247 246 244 242 243 242 240 240 240 246 250 252 243 237 237 242 239 246 250 250 250 257 261 247 242 243 245 245 248 252 256 261 266 270 278 277 280 291 286 281 289 304 296 295
249 246 243 240 241 238 237 236 238 246 247 254 252 247 240 237 238 233 239 244 239 242 247 253 252 240 257 251 247 248 248 252 262 262 264 267 277 285 291 278 274 290 274 287 284
245 244 244 241 237 236 233 233 242 245 246 247 248 250 243 238 237 236 241 248 248 248 245 249 253 238 240 243 239 242 247 253 259 265 271 266 271 291 239 264 285 283 283 277 263
242 241 240 237 236 233 230 235 241 244 245 240 242 243 244 236 236 237 238 244 243 242 241 243 246 229 235 242 240 239 240 244 252 262 261 264 272 287 220 242 282 291 278 277 278
241 238 236 233 234 232 232 238 238 238 238 239 238 239 240 235 230 232 234 242 240 239 242 239 238 224 230 244 246 246 247 244 250 253 265 268 263 257 239 249 268 269 261 267 268
243 239 235 230 230 230 231 235 235 236 234 235 234 232 234 235 231 230 230 230 232 233 236 240 238 238 225 238 244 244 246 244 248 253 263 268 207 270 313 261 289 320 267 248 227
244 240 233 230 229 228 228 228 229 233 233 234 230 231 230 229 228 225 227 229 227 224 227 228 231 234 230 230 240 247 243 240 244 249 255 263 216 247 267 267 270 263 231 213 220
240 234 225 222 228 226 224 223 225 226 230 232 234 228 226 226 227 225 225 224 226 221 220 222 227 235 242 244 242 247 251 247 240 247 253 251 242 231 242 241 240 251 225 189 209
222 208 229 222 229 222 220 220 219 220 225 227 230 228 225 223 224 224 224 225 223 218 219 221 230 235 240 229 227 231 237 247 248 252 254 256 252 248 271 251 219 247 235 205 192
215 201 217 223 227 216 213 216 218 218 218 224 225 226 224 220 219 222 222 224 223 217 216 220 223 229 233 233 232 234 243 232 237 236 243 250 242 247 267 241 237 224 206 210 201
225 206 214 197 237 230 225 211 212 216 217 220 223 222 223 220 216 218 221 220 220 216 216 215 218 223 229 231 235 240 237 238 233 232 236 240 243 244 247 248 234 229 220 214 210